一网星座-0677星 (ONEWEB-0677)

导读 | 豆包AI

ONEWEB-0677是英国OneWeb公司低轨卫星互联网星座的一员,于2023年5月20日发射入轨,运行在1200公里高度的近地极地轨道上。卫星质量约175-200kg,工作在Ku波段,采用渐进倾斜技术避免与同步轨道卫星干扰,将为全球偏远地区及政企客户提供高速低延迟的卫星互联网接入服务,助力OneWeb完成全球卫星星座组网,缩小数字鸿沟。

基本信息
目录编号:
56713
目录名称:
ONEWEB-0677
国际标识:
2023-068D
轨道中心:
EARTH
卫星名称:
一网星座-0677星
卫星全名:
一网星座-0677星 (ONEWEB-0677)
卫星状态:
在轨 (已飞行1076 天)
发射日期:
2023-05-20 UTC
国别 :
英国 (GB)
星等 :
--
轨道信息
数据来源 国际轨道数据 AOE轨道数据
星历时间 2026-04-30T08:07:46+0800
9小时前
查看轨道信息
2026-04-29T15:00:00+0800
1天前
查看轨道信息
半长轴 7559.917km 7559.903km
偏心率 0.0001836 0.0001722
轨道倾角 87.914° 87.914°
近地点辐角 107.796° 116.434°
升交点赤经 284.049° 284.192°
平近点角 252.337° 92.054°
近地点 1180.391km 1180.464km
远地点 1183.169km 1183.068km
周期 109.027分钟 109.027分钟
每日圈数 13.207702 13.207739
详细信息
平衡模式:
三轴稳定
覆盖范围:
全球
运营商:
一网卫星公司
运营商所在国:
英国
制造商(研发单位):
一网卫星公司
制造商所在国:
英国
使用方式:
暂无
卫星简介
OneWeb卫星网络由648颗重约125公斤的微型卫星组成,运行在1200公里的轨道上。 每颗卫星都能够提供至少每秒8千兆位的吞吐量,以使用其高吞吐量的Ku频段有效载荷为家庭和移动平台提供互联网接入。该卫星仍在工作。
2D轨道图
3D轨道图
轨道高度分析图
轨道倾角分析图
轨道综合分析图
查看轨道综合分析图